Marysville, CA

3:55 PM PDT on August 21, 2019 (GMT -0700)
Yuba County

Weather History for KMYV - June, 2019

Change the Weather History Date:

Monday, June 3, 2019

  Actual Average Record
Temperature  
Mean Temperature 76 °F -  
Max Temperature 91 °F 86 °F 106 °F (1960)
Min Temperature 60 °F 57 °F 47 °F (1966)
Cooling Degree Days 10    
Growing Degree Days 26 (Base 50)    
Moisture  
Dew Point 61 °F    
Average Humidity 62    
Maximum Humidity 83    
Minimum Humidity 39    
Precipitation  
Precipitation 0.00 in - - ()
Sea Level Pressure  
Sea Level Pressure 29.85 in    
Wind  
Wind Speed 6 mph (South)    
Max Wind Speed 14 mph    
Max Gust Speed -    
Visibility 10 miles    
Events      
Averages and records for this station are not official NWS values.
T = Trace of Precipitation, MM = Missing Value Source: NWS Daily Summary

Daily Weather History Graph

Daily Weather History Graph

Search for Another Location

Airport or City:

Astronomy

Jun. 03, 2019 Rise Set
Actual Time 5:41 AM PDT 8:27 PM PDT
Civil Twilight 5:09 AM PDT 8:59 PM PDT
Nautical Twilight 4:30 AM PDT 9:39 PM PDT
Astronomical Twilight 3:45 AM PDT 10:24 PM PDT
Moon 6:05 AM PDT (6/3) 8:58 PM PDT (6/3)
Length of Visible Light 15h 49m
Length of Day
14h 46m
New Moon, 0% of the Moon is Illuminated
Jun 3
New Moon
Jun 9
First Quarter
Jun 17
Full
Jun 25
Last Quarter
Jul 2
New

Hourly Weather History & Observations

Time (PDT) Temp. Heat Index Dew Point Humidity Pressure Visibility Wind Dir Wind Speed Gust Speed Precip Events Conditions
12:53 AM 69.1 °F - 57.9 °F 68% 29.83 in 10.0 mi South 13.8 mph - N/A   Clear
1:53 AM 66.9 °F - 57.9 °F 73% 29.85 in 10.0 mi South 8.1 mph - N/A   Clear
2:53 AM 64.0 °F - 55.9 °F 75% 29.85 in 10.0 mi SSW 4.6 mph - N/A   Clear
3:53 AM 62.1 °F - 55.0 °F 78% 29.86 in 10.0 mi Calm Calm - N/A   Clear
4:53 AM 61.0 °F - 55.0 °F 81% 29.86 in 10.0 mi Calm Calm - N/A   Clear
5:53 AM 60.1 °F - 55.0 °F 83% 29.87 in 10.0 mi SW 3.5 mph - N/A   Clear
6:53 AM 61.0 °F - 55.0 °F 81% 29.89 in 10.0 mi SW 4.6 mph - N/A   Clear
7:53 AM 64.0 °F - 55.9 °F 75% 29.90 in 10.0 mi SSW 4.6 mph - N/A   Clear
8:53 AM 68.0 °F - 57.0 °F 68% 29.90 in 10.0 mi Calm Calm - N/A   Clear
9:53 AM 71.1 °F - 57.9 °F 63% 29.90 in 10.0 mi Variable 3.5 mph - N/A   Clear
10:53 AM 75.9 °F - 60.1 °F 58% 29.90 in 10.0 mi Calm Calm - N/A   Clear
11:53 AM 81.0 °F 81.9 °F 62.1 °F 52% 29.89 in 10.0 mi West 6.9 mph - N/A   Clear
12:53 PM 84.0 °F 84.9 °F 63.0 °F 49% 29.88 in 10.0 mi Calm Calm - N/A   Clear
1:53 PM 86.0 °F 87.3 °F 64.0 °F 48% 29.86 in 10.0 mi Variable 3.5 mph - N/A   Clear
2:53 PM 87.1 °F 88.9 °F 64.9 °F 48% 29.84 in 10.0 mi SSW 4.6 mph - N/A   Clear
3:53 PM 89.1 °F 90.3 °F 64.0 °F 43% 29.81 in 10.0 mi Variable 3.5 mph - N/A   Clear
4:53 PM 91.0 °F 91.9 °F 63.0 °F 39% 29.80 in 10.0 mi Variable 4.6 mph - N/A   Clear
5:53 PM 90.0 °F 91.3 °F 64.0 °F 42% 29.79 in 10.0 mi South 3.5 mph - N/A   Clear
6:53 PM 88.0 °F 90.3 °F 66.0 °F 48% 29.79 in 10.0 mi SE 8.1 mph - N/A   Clear
7:53 PM 84.9 °F 87.1 °F 66.0 °F 53% 29.80 in 10.0 mi SE 8.1 mph - N/A   Clear
8:53 PM 79.0 °F - 66.9 °F 66% 29.81 in 10.0 mi South 5.8 mph - N/A   Clear
9:53 PM 77.0 °F - 64.9 °F 66% 29.83 in 10.0 mi SSE 4.6 mph - N/A   Clear
10:53 PM 75.9 °F - 64.9 °F 69% 29.84 in 10.0 mi SSE 8.1 mph - N/A   Clear
11:53 PM 73.0 °F - 64.0 °F 73% 29.84 in 10.0 mi ESE 6.9 mph - N/A   Clear